Location: ??????
(38.3184°N, 23.6932°E)
Time: 02:34:29
(UTC+00:00)

Cosmos 1892 Rocket - Pass Details

Date: 16 October 2021
Orbit: 605 x 634 km, 82.5° (Epoch: 04 December)

Event Time Altitude Azimuth Distance (km) Brightness Sun altitude
Rises 17:17:08 0° 350° (N) 2,933 7.2 -18.7°
Reaches altitude 10° 17:19:24 10° 348° (NNW) 2,018 6.4 -19.1°
Maximum altitude 17:23:51 71° 266° (W) 665 3.8 -20.0°
Drops below altitude 10° 17:28:14 10° 182° (S) 1,987 6.1 -20.8°
Sets 17:30:27 0° 180° (S) 2,884 6.9 -21.3°
